Weather History for Middletown, OH

Change the Weather History Date:

Friday, February 8, 2013

  Actual Average (KDAY) Record (KDAY)
Temperature  
Mean Temperature 42 °F 29 °F  
Max Temperature 52 °F 37 °F 71 °F (1937)
Min Temperature 32 °F 22 °F -16 °F (1895)
Degree Days  
Heating Degree Days 23 36  
Month to date heating degree days 290  
Since 1 July heating degree days 3613  
Cooling Degree Days 0 0  
Month to date cooling degree days 0  
Year to date cooling degree days 0  
Moisture  
Dew Point 33 °F    
Average Humidity 85    
Maximum Humidity 99    
Minimum Humidity 66    
Precipitation  
Precipitation 0.00 in 0.08 in 0.83 in (1994)
Month to date precipitation 0.65  
Year to date precipitation 3.36  
Snow  
Snow 0.00 in 0.20 in 4.80 in (1971)
Month to date snowfall 1.8  
Since 1 July snowfall 15.2  
Snow Depth -    
Sea Level Pressure  
Sea Level Pressure 30.08 in    
Wind  
Wind Speed 11 mph (NW)    
Max Wind Speed 18 mph    
Max Gust Speed 25 mph    
Visibility 10 miles    
Events Rain    
T = Trace of Precipitation, MM = Missing Value Source: NWS Daily Summary

Daily Weather History Graph

Daily Weather History Graph

Search for Another Location

Airport:

Trip Planner

Search our weather history database for the weather conditions in past years. The results will help you decide how hot, cold, wet, or windy it might be!

Date:

Astronomy

Feb. 08, 2013 Rise Set
Actual Time 7:37 AM EST 6:06 PM EST
Civil Twilight 7:09 AM EST 6:34 PM EST
Nautical Twilight 6:38 AM EST 7:06 PM EST
Astronomical Twilight 6:06 AM EST 7:37 PM EST
Moon 6:05 AM EST (2/8) 4:38 PM EST (2/8)
Length of Visible Light 11h 24m
Length of Day
10h 28m
Waning Crescent, 3% of the Moon is Illuminated
Feb 8
Waning Crescent
Feb 10
New
Feb 17
First Quarter
Feb 25
Full
Mar 4
Last Quarter

Hourly Weather History & Observations

Time (EST) Temp. Windchill Dew Point Humidity Pressure Visibility Wind Dir Wind Speed Gust Speed Precip Events Conditions
12:15 AM 52.7 °F - 42.1 °F 67% 29.80 in 10.0 mi SSW 10.4 mph - N/A   Overcast
12:35 AM 52.7 °F - 41.5 °F 66% 29.80 in 10.0 mi SW 9.2 mph - N/A   Overcast
12:55 AM 50.5 °F - 40.5 °F 68% 29.80 in 10.0 mi SSW 8.1 mph - N/A   Overcast
1:15 AM 50.7 °F - 41.7 °F 71% 29.81 in 10.0 mi WSW 8.1 mph - N/A   Drizzle
1:35 AM 47.7 °F - 41.4 °F 79% 29.81 in 10.0 mi SW 5.8 mph - N/A   Drizzle
1:55 AM 47.7 °F - 41.9 °F 80% 29.81 in 10.0 mi SW 5.8 mph - N/A Rain Light Rain
2:15 AM 47.7 °F - 43.3 °F 85% 29.81 in 7.0 mi WSW 9.2 mph - N/A   Unknown
2:35 AM 47.7 °F - 45.0 °F 90% 29.81 in 4.0 mi SW 12.7 mph 18.4 mph N/A   Unknown
2:55 AM 47.7 °F - 45.9 °F 93% 29.81 in 10.0 mi WSW 10.4 mph - N/A   Overcast
3:15 AM 47.7 °F - 46.9 °F 97% 29.82 in 4.0 mi West 10.4 mph - N/A   Overcast
3:35 AM 45.1 °F 38.8 °F 45.0 °F 99% 29.83 in 7.0 mi NW 13.8 mph 19.6 mph N/A   Overcast
3:55 AM 42.6 °F 35.2 °F 42.1 °F 98% 29.83 in 7.0 mi WNW 15.0 mph - N/A   Unknown
4:35 AM 40.1 °F 33.2 °F 39.9 °F 99% 29.87 in 7.0 mi WNW 11.5 mph 16.1 mph N/A   Unknown
4:55 AM 38.8 °F 32.1 °F 38.7 °F 99% 29.87 in 7.0 mi WNW 10.4 mph - N/A   Unknown
5:15 AM 37.8 °F 31.3 °F 37.4 °F 99% 29.88 in 10.0 mi West 9.2 mph - N/A   Overcast
5:35 AM 37.6 °F 29.6 °F 37.0 °F 98% 29.89 in 10.0 mi WNW 12.7 mph 20.7 mph N/A   Overcast
5:55 AM 37.6 °F 30.0 °F 37.0 °F 98% 29.91 in 7.0 mi NW 11.5 mph 23.0 mph N/A   Overcast
6:15 AM 37.6 °F 28.8 °F 37.4 °F 99% 29.92 in 5.0 mi WNW 15.0 mph 25.3 mph N/A   Overcast
6:35 AM 35.1 °F 24.5 °F 34.0 °F 96% 29.93 in 7.0 mi NW 18.4 mph 24.2 mph N/A   Overcast
6:55 AM 35.1 °F 26.4 °F 33.3 °F 93% 29.94 in 10.0 mi WNW 12.7 mph 17.3 mph N/A   Overcast
7:15 AM 35.2 °F 26.6 °F 33.4 °F 93% 29.95 in 10.0 mi NW 12.7 mph 17.3 mph N/A   Overcast
7:35 AM 35.1 °F 25.5 °F 33.4 °F 94% 29.96 in 10.0 mi NW 15.0 mph 23.0 mph N/A   Overcast
7:55 AM 35.1 °F 27.4 °F 33.4 °F 94% 29.97 in 10.0 mi WNW 10.4 mph - N/A   Overcast
8:15 AM 35.6 °F 28.6 °F 33.4 °F 92% 29.98 in 10.0 mi WNW 9.2 mph - N/A   Overcast
8:35 AM 35.6 °F 26.6 °F 33.4 °F 92% 29.99 in 10.0 mi NW 13.8 mph - N/A   Overcast
8:55 AM 35.6 °F 27.1 °F 32.9 °F 90% 30.01 in 10.0 mi WNW 12.7 mph 18.4 mph N/A   Overcast
9:15 AM 35.2 °F 27.1 °F 33.1 °F 92% 30.02 in 10.0 mi WNW 11.5 mph 17.3 mph N/A   Overcast
9:35 AM 35.1 °F 24.8 °F 32.5 °F 91% 30.03 in 10.0 mi WNW 17.3 mph 24.2 mph N/A   Overcast
9:55 AM 35.4 °F 26.0 °F 32.4 °F 89% 30.04 in 10.0 mi WNW 15.0 mph 19.6 mph N/A   Overcast
10:15 AM 35.4 °F 26.4 °F 32.0 °F 87% 30.05 in 10.0 mi WNW 13.8 mph - N/A   Overcast
10:35 AM 35.1 °F 27.4 °F 32.0 °F 89% 30.07 in 10.0 mi NW 10.4 mph 18.4 mph N/A   Overcast
10:55 AM 35.1 °F 26.9 °F 32.0 °F 89% 30.07 in 10.0 mi NW 11.5 mph 17.3 mph N/A   Overcast
11:15 AM 35.1 °F 24.8 °F 31.8 °F 88% 30.09 in 10.0 mi NW 17.3 mph 23.0 mph N/A   Overcast
11:35 AM 35.1 °F 26.4 °F 31.6 °F 87% 30.10 in 10.0 mi NNW 12.7 mph 20.7 mph N/A   Overcast
11:55 AM 35.1 °F 27.9 °F 32.0 °F 89% 30.11 in 10.0 mi NW 9.2 mph 23.0 mph N/A   Overcast
12:15 PM 35.1 °F 26.4 °F 32.0 °F 89% 30.12 in 10.0 mi NW 12.7 mph 19.6 mph N/A   Overcast
12:35 PM 35.1 °F 27.9 °F 31.5 °F 87% 30.12 in 10.0 mi NW 9.2 mph 18.4 mph N/A   Overcast
12:55 PM 35.1 °F 26.9 °F 31.1 °F 85% 30.13 in 10.0 mi NNW 11.5 mph 16.1 mph N/A   Overcast
1:15 PM 35.1 °F 27.4 °F 31.1 °F 85% 30.14 in 10.0 mi NNW 10.4 mph - N/A   Overcast
1:35 PM 35.1 °F 26.9 °F 30.2 °F 82% 30.14 in 10.0 mi NNW 11.5 mph 20.7 mph N/A   Overcast
1:55 PM 35.1 °F 27.9 °F 30.2 °F 82% 30.14 in 10.0 mi NNW 9.2 mph 20.7 mph N/A   Overcast
2:15 PM 35.1 °F 27.9 °F 30.0 °F 82% 30.15 in 10.0 mi NNW 9.2 mph 17.3 mph N/A   Overcast
2:35 PM 35.1 °F 26.4 °F 30.2 °F 82% 30.15 in 10.0 mi NNW 12.7 mph 17.3 mph N/A   Overcast
2:55 PM 35.1 °F 27.4 °F 30.0 °F 82% 30.15 in 10.0 mi NNW 10.4 mph 20.7 mph N/A   Overcast
3:15 PM 35.1 °F 27.4 °F 29.8 °F 81% - 10.0 mi NNW 10.4 mph 20.7 mph N/A   Overcast
3:35 PM 35.1 °F 26.4 °F 29.8 °F 81% 30.17 in 10.0 mi NW 12.7 mph 20.7 mph N/A   Overcast
3:55 PM 35.1 °F 25.9 °F 29.7 °F 81% 30.17 in 10.0 mi North 13.8 mph 17.3 mph N/A   Overcast
4:15 PM 35.1 °F 27.4 °F 29.7 °F 81% 30.19 in 10.0 mi NNW 10.4 mph 18.4 mph N/A   Overcast
4:35 PM 35.1 °F 26.9 °F 29.8 °F 81% 30.20 in 10.0 mi NNW 11.5 mph - N/A   Overcast
4:55 PM 35.1 °F 25.5 °F 30.0 °F 82% 30.21 in 10.0 mi NNW 15.0 mph 20.7 mph N/A   Overcast
5:15 PM 35.1 °F 28.6 °F 29.3 °F 80% 30.22 in 10.0 mi NNW 8.1 mph - N/A   Overcast
5:35 PM 35.1 °F 28.6 °F 29.7 °F 81% 30.23 in 10.0 mi NNW 8.1 mph - N/A   Overcast
5:55 PM 35.1 °F 28.6 °F 30.0 °F 82% 30.24 in 10.0 mi NNW 8.1 mph - N/A   Overcast
6:15 PM 35.1 °F 27.9 °F 29.5 °F 80% 30.25 in 10.0 mi NNW 9.2 mph - N/A   Overcast
6:35 PM 35.1 °F 27.9 °F 30.0 °F 82% 30.25 in 10.0 mi NNW 9.2 mph - N/A   Overcast
6:55 PM 35.1 °F 28.6 °F 30.0 °F 82% 30.26 in 10.0 mi North 8.1 mph - N/A   Overcast
7:15 PM 33.8 °F 27.7 °F 29.1 °F 83% 30.28 in 10.0 mi NNW 6.9 mph - N/A   Overcast
7:35 PM 33.8 °F 27.0 °F 28.8 °F 82% 30.29 in 10.0 mi NNW 8.1 mph - N/A   Overcast
7:55 PM 33.3 °F 24.6 °F 27.5 °F 79% 30.29 in 10.0 mi NNW 11.5 mph 16.1 mph N/A   Overcast
8:15 PM 32.5 °F 24.2 °F 25.5 °F 75% 30.30 in 10.0 mi NNW 10.4 mph 19.6 mph N/A   Overcast
8:35 PM 32.5 °F 23.7 °F 25.7 °F 76% 30.31 in 10.0 mi NNW 11.5 mph 19.6 mph N/A   Overcast
8:55 PM 32.5 °F 26.2 °F 25.7 °F 76% 30.32 in 10.0 mi North 6.9 mph - N/A   Overcast
9:15 PM 32.5 °F 28.1 °F 26.4 °F 78% 30.33 in 10.0 mi North 4.6 mph - N/A   Overcast
9:35 PM 32.5 °F - 27.0 °F 80% 30.33 in 10.0 mi Calm Calm - N/A   Overcast
9:55 PM 32.5 °F 27.1 °F 26.6 °F 79% 30.33 in 10.0 mi NNW 5.8 mph - N/A   Overcast
10:15 PM 32.5 °F 24.8 °F 26.2 °F 78% 30.33 in 10.0 mi NNW 9.2 mph - N/A   Overcast
10:35 PM 32.5 °F 27.1 °F 25.7 °F 76% 30.34 in 10.0 mi North 5.8 mph - N/A   Overcast
10:55 PM 32.5 °F 23.7 °F 26.2 °F 78% 30.34 in 10.0 mi North 11.5 mph - N/A   Overcast
11:15 PM 32.5 °F 25.5 °F 25.5 °F 75% 30.33 in 10.0 mi North 8.1 mph - N/A   Overcast
11:35 PM 32.5 °F 27.1 °F 25.9 °F 76% 30.33 in 10.0 mi NNE 5.8 mph - N/A   Overcast
11:55 PM 32.5 °F 24.2 °F 27.0 °F 80% 30.34 in 10.0 mi NNE 10.4 mph - N/A   Overcast